Weather History for KM30 - October, 2011

Change the Weather History Date:

Tuesday, October 18, 2011

  Actual Average (KPAH) Record (KPAH)
Temperature  
Mean Temperature 48 °F 58 °F  
Max Temperature 53 °F 70 °F 88 °F (1938)
Min Temperature 44 °F 46 °F 27 °F (1976)
Degree Days  
Heating Degree Days 16 8  
Month to date heating degree days 105  
Since 1 July heating degree days 144  
Cooling Degree Days 0 1  
Month to date cooling degree days 29  
Year to date cooling degree days 1529  
Moisture  
Dew Point 42 °F    
Average Humidity 82    
Maximum Humidity 100    
Minimum Humidity 54    
Precipitation  
Precipitation 0.34 in 0.14 in 1.86 in (1972)
Month to date precipitation 2.35  
Year to date precipitation 38.58  
Snow  
Snow 0.00 in 0.00 in T in (2007)
Month to date snowfall 0.0  
Since 1 July snowfall 0.0  
Since 1 September snowfall 0.0  
Snow Depth -    
Sea Level Pressure  
Sea Level Pressure 29.79 in    
Wind  
Wind Speed 7 mph (North)    
Max Wind Speed 15 mph    
Max Gust Speed 21 mph    
Visibility 10 miles    
Events Rain , Thunderstorm    
T = Trace of Precipitation, MM = Missing Value Source: NWS Daily Summary

Daily Weather History Graph

Daily Weather History Graph

Search for Another Location

Airport or City:

Trip Planner

Search our weather history database for the weather conditions in past years. The results will help you decide how hot, cold, wet, or windy it might be!

Date:

Astronomy

Oct. 18, 2011 Rise Set
Actual Time 7:05 AM CDT 6:14 PM CDT
Civil Twilight 6:39 AM CDT 6:40 PM CDT
Nautical Twilight 6:08 AM CDT 7:10 PM CDT
Astronomical Twilight 5:38 AM CDT 7:41 PM CDT
Moon 10:59 PM CDT (10/18) 12:51 PM CDT (10/18)
Length of Visible Light 12h 01m
Length of Day
11h 09m
Waning Gibbous, 64% of the Moon is Illuminated
Oct 18
Waning Gibbous
Oct 19
Last Quarter
Oct 26
New
Nov 2
First Quarter
Nov 10
Full

Hourly Weather History & Observations

Time (CDT) Temp. Windchill Dew Point Humidity Pressure Visibility Wind Dir Wind Speed Gust Speed Precip Events Conditions
12:15 AM 53.6 °F - 37.4 °F 54% 29.84 in 10.0 mi North 4.6 mph - N/A   Clear
12:35 AM 53.6 °F - 37.4 °F 54% 29.83 in 10.0 mi North 5.8 mph - N/A   Clear
12:55 AM 51.8 °F - 37.4 °F 58% 29.82 in 10.0 mi NNE 5.8 mph - N/A   Clear
1:15 AM 51.8 °F - 37.4 °F 58% 29.82 in 10.0 mi Calm Calm - N/A   Clear
1:35 AM 51.8 °F - 35.6 °F 54% 29.81 in 10.0 mi NE 8.1 mph - N/A   Clear
1:55 AM 51.8 °F - 35.6 °F 54% 29.80 in 10.0 mi NE 4.6 mph - N/A   Clear
2:15 AM 51.8 °F - 35.6 °F 54% 29.80 in 10.0 mi NE 6.9 mph - N/A   Scattered Clouds
2:35 AM 51.8 °F - 35.6 °F 54% 29.81 in 10.0 mi North 9.2 mph - N/A   Mostly Cloudy
2:55 AM 51.8 °F - 35.6 °F 54% 29.82 in 10.0 mi North 8.1 mph - N/A   Mostly Cloudy
3:15 AM 51.8 °F - 35.6 °F 54% 29.82 in 10.0 mi North 6.9 mph - N/A   Overcast
3:35 AM 51.8 °F - 35.6 °F 54% 29.81 in 10.0 mi North 9.2 mph - N/A   Mostly Cloudy
3:55 AM 50.0 °F - 35.6 °F 58% 29.81 in 10.0 mi North 8.1 mph 17.3 mph N/A Thunderstorm Scattered Clouds
4:15 AM 50.0 °F - 37.4 °F 62% 29.80 in 10.0 mi North 12.7 mph 18.4 mph N/A   Scattered Clouds
4:35 AM 50.0 °F - 39.2 °F 66% 29.79 in 10.0 mi NNE 8.1 mph 16.1 mph N/A   Mostly Cloudy
4:55 AM 50.0 °F - 41.0 °F 71% 29.78 in 10.0 mi NNE 10.4 mph 16.1 mph N/A Thunderstorm Mostly Cloudy
5:15 AM 50.0 °F - 41.0 °F 71% 29.79 in 10.0 mi NNE 5.8 mph - N/A Thunderstorm Mostly Cloudy
5:35 AM 48.2 °F - 41.0 °F 76% 29.80 in 10.0 mi NNE 3.5 mph - N/A Rain Rain
5:55 AM 46.4 °F - 42.8 °F 87% 29.81 in 7.0 mi Calm Calm - 0.04 in Rain , Thunderstorm Heavy Thunderstorms and Rain
6:15 AM 46.4 °F 44.3 °F 42.8 °F 87% 29.82 in 7.0 mi North 4.6 mph - 0.05 in Rain , Thunderstorm Heavy Thunderstorms and Rain
6:35 AM 46.4 °F 42.9 °F 44.6 °F 93% 29.82 in 10.0 mi NNW 6.9 mph - 0.08 in Rain , Thunderstorm Rain
6:55 AM 46.4 °F 42.9 °F 44.6 °F 93% 29.81 in 10.0 mi North 6.9 mph - 0.09 in Rain , Thunderstorm Light Thunderstorms and Rain
7:15 AM 46.4 °F 42.9 °F 44.6 °F 93% 29.79 in 10.0 mi North 6.9 mph - 0.01 in Rain Light Rain
7:35 AM 46.4 °F 43.5 °F 44.6 °F 93% 29.75 in 7.0 mi NNE 5.8 mph 9.2 mph 0.02 in Rain Rain
7:55 AM 46.4 °F 44.3 °F 44.6 °F 93% 29.78 in 10.0 mi NNE 4.6 mph - 0.03 in Rain Light Rain
8:15 AM 46.4 °F 44.3 °F 44.6 °F 93% 29.79 in 10.0 mi North 4.6 mph - N/A Rain Rain
8:35 AM 46.4 °F 42.9 °F 44.6 °F 93% 29.78 in 10.0 mi North 6.9 mph - 0.01 in   Overcast
8:55 AM 46.4 °F 42.4 °F 44.6 °F 93% 29.78 in 10.0 mi North 8.1 mph - 0.01 in   Overcast
9:15 AM 46.4 °F 42.4 °F 46.4 °F 100% 29.78 in 10.0 mi North 8.1 mph - N/A   Overcast
9:35 AM 46.4 °F 42.4 °F 46.4 °F 100% 29.80 in 10.0 mi North 8.1 mph - N/A   Overcast
10:15 AM 46.4 °F 41.5 °F 44.6 °F 93% 29.80 in 10.0 mi North 10.4 mph 16.1 mph N/A   Overcast
10:35 AM 46.4 °F 40.4 °F 44.6 °F 93% 29.80 in 10.0 mi North 13.8 mph 18.4 mph N/A   Overcast
10:55 AM 46.4 °F 41.1 °F 44.6 °F 93% 29.82 in 10.0 mi North 11.5 mph 17.3 mph N/A   Overcast
11:15 AM 46.4 °F 41.5 °F 42.8 °F 87% 29.81 in 10.0 mi North 10.4 mph 16.1 mph N/A Rain Light Rain
11:35 AM 46.4 °F 40.7 °F 44.6 °F 93% 29.80 in 10.0 mi North 12.7 mph 20.7 mph N/A   Overcast
11:55 AM 46.4 °F 40.1 °F 42.8 °F 87% 29.81 in 10.0 mi NNW 15.0 mph 19.6 mph N/A Rain Light Rain
12:15 PM 46.4 °F 40.7 °F 42.8 °F 87% 29.81 in 10.0 mi North 12.7 mph - N/A Rain Rain
12:35 PM 46.4 °F 41.9 °F 44.6 °F 93% 29.78 in 7.0 mi North 9.2 mph 19.6 mph 0.01 in Rain Rain
12:55 PM 46.4 °F 41.5 °F 44.6 °F 93% 29.77 in 10.0 mi North 10.4 mph 16.1 mph 0.02 in Rain Light Rain
1:15 PM 46.4 °F 41.9 °F 44.6 °F 93% 29.77 in 10.0 mi North 9.2 mph - N/A   Overcast
1:35 PM 46.4 °F 40.7 °F 44.6 °F 93% 29.78 in 10.0 mi North 12.7 mph 19.6 mph N/A Rain Light Rain
1:55 PM 46.4 °F 41.5 °F 44.6 °F 93% 29.77 in 7.0 mi NNW 10.4 mph 18.4 mph 0.01 in Rain Rain
2:15 PM 46.4 °F 41.9 °F 44.6 °F 93% 29.76 in 7.0 mi North 9.2 mph - 0.01 in Rain Rain
2:35 PM 46.4 °F 41.9 °F 44.6 °F 93% 29.75 in 7.0 mi North 9.2 mph 16.1 mph 0.03 in Rain Rain
3:15 PM 46.4 °F 41.9 °F 44.6 °F 93% 29.75 in 10.0 mi NNW 9.2 mph - 0.02 in Rain Rain
3:35 PM 46.4 °F 45.2 °F 44.6 °F 93% 29.77 in 10.0 mi North 3.5 mph 16.1 mph 0.04 in Rain Rain
3:55 PM 46.4 °F 43.5 °F 44.6 °F 93% 29.77 in 7.0 mi North 5.8 mph - 0.07 in Rain Rain
4:15 PM 46.4 °F 41.9 °F 44.6 °F 93% 29.78 in 10.0 mi NNW 9.2 mph - N/A   Drizzle
4:35 PM 46.4 °F 42.9 °F 44.6 °F 93% 29.78 in 10.0 mi North 6.9 mph - 0.01 in Rain Light Rain
4:55 PM 46.4 °F 41.9 °F 44.6 °F 93% 29.78 in 7.0 mi NNW 9.2 mph - 0.03 in Rain Light Rain
5:15 PM 46.4 °F 41.5 °F 44.6 °F 93% 29.77 in 10.0 mi NNW 10.4 mph - N/A Rain Light Rain
5:35 PM 46.4 °F 41.9 °F 44.6 °F 93% 29.76 in 10.0 mi NNW 9.2 mph - 0.01 in   Drizzle
5:55 PM 46.4 °F 41.5 °F 44.6 °F 93% 29.77 in 10.0 mi NNW 10.4 mph 17.3 mph 0.01 in Rain Light Rain
6:15 PM 46.4 °F 41.5 °F 42.8 °F 87% 29.78 in 10.0 mi NNW 10.4 mph 19.6 mph N/A   Overcast
6:35 PM 46.4 °F 40.4 °F 42.8 °F 87% 29.78 in 10.0 mi NNW 13.8 mph - N/A   Overcast
6:55 PM 44.6 °F 42.2 °F 41.0 °F 87% 29.80 in 10.0 mi NNW 4.6 mph - N/A   Overcast
7:15 PM 44.6 °F 40.2 °F 41.0 °F 87% 29.80 in 10.0 mi NNW 8.1 mph - N/A   Overcast
7:35 PM 44.6 °F 40.2 °F 41.0 °F 87% 29.79 in 10.0 mi NNW 8.1 mph - N/A   Overcast
7:55 PM 46.4 °F 43.5 °F 41.0 °F 81% 29.79 in 10.0 mi North 5.8 mph - N/A   Overcast
8:15 PM 46.4 °F 43.5 °F 41.0 °F 81% 29.79 in 10.0 mi NNW 5.8 mph - N/A   Overcast
8:35 PM 46.4 °F 44.3 °F 41.0 °F 81% 29.78 in 10.0 mi North 4.6 mph - N/A   Overcast
8:55 PM 46.4 °F 45.2 °F 41.0 °F 81% 29.78 in 10.0 mi NNW 3.5 mph - N/A Rain Light Rain
9:15 PM 46.4 °F 44.3 °F 41.0 °F 81% 29.78 in 10.0 mi NW 4.6 mph - N/A   Overcast
9:35 PM 46.4 °F 45.2 °F 41.0 °F 81% 29.79 in 10.0 mi WNW 3.5 mph - N/A   Light Drizzle
9:55 PM 44.6 °F - 41.0 °F 87% 29.78 in 10.0 mi Calm Calm - N/A Rain Light Rain
10:15 PM 44.6 °F - 41.0 °F 87% 29.78 in 10.0 mi Calm Calm - N/A   Overcast
10:35 PM 44.6 °F - 42.8 °F 93% 29.78 in 10.0 mi Calm Calm - N/A   Overcast
10:55 PM 44.6 °F - 42.8 °F 93% 29.77 in 10.0 mi Calm Calm - N/A   Overcast
11:15 PM 44.6 °F - 42.8 °F 93% 29.77 in 10.0 mi Calm Calm - N/A   Light Drizzle
11:35 PM 44.6 °F - 42.8 °F 93% 29.76 in 10.0 mi Calm Calm - N/A   Overcast
11:55 PM 44.6 °F 43.1 °F 42.8 °F 93% 29.74 in 10.0 mi WNW 3.5 mph - N/A   Overcast